Date_Time,Julian_Date,Latitude,Longitude,Instrument_Depth,U,V,Speed,Direction
(yyyy-mm-dd hh:mn:ss UTC),(JD),(+ deg. North),(+ deg. East),(m),(cm/s),(cm/s),(cm/s),(deg True)
1983-12-12 18:00:00 UTC,2445681.250000,28.7317,-95.2428,0036,3.03,10.57,11.0000,16.0000
1983-12-12 18:30:00 UTC,2445681.270833,28.7317,-95.2428,0036,2.49,11.74,12.0000,12.0000
1983-12-12 19:00:00 UTC,2445681.291667,28.7317,-95.2428,0036,1.81,12.87,13.0000,8.0000
1983-12-12 19:30:00 UTC,2445681.312500,28.7317,-95.2428,0036,1.22,13.95,14.0000,5.0000
1983-12-12 20:00:00 UTC,2445681.333333,28.7317,-95.2428,0036,0.79,14.98,15.0000,3.0000
1983-12-12 20:30:00 UTC,2445681.354167,28.7317,-95.2428,0036,0.89,16.98,17.0000,3.0000
1983-12-12 21:00:00 UTC,2445681.375000,28.7317,-95.2428,0036,1.05,19.97,20.0000,3.0000
1983-12-12 21:30:00 UTC,2445681.395833,28.7317,-95.2428,0036,2.20,20.88,21.0000,6.0000
1983-12-12 22:00:00 UTC,2445681.416667,28.7317,-95.2428,0036,3.60,22.72,23.0000,9.0000
1983-12-12 22:30:00 UTC,2445681.437500,28.7317,-95.2428,0036,4.39,22.58,23.0000,11.0000
1983-12-12 23:00:00 UTC,2445681.458333,28.7317,-95.2428,0036,6.21,23.18,24.0000,15.0000
1983-12-12 23:30:00 UTC,2445681.479167,28.7317,-95.2428,0036,7.42,22.83,24.0000,18.0000
1983-12-13 00:00:00 UTC,2445681.500000,28.7317,-95.2428,0036,8.60,22.41,24.0000,21.0000
1983-12-13 00:30:00 UTC,2445681.520833,28.7317,-95.2428,0036,8.99,22.25,24.0000,22.0000
1983-12-13 01:00:00 UTC,2445681.541667,28.7317,-95.2428,0036,8.99,22.25,24.0000,22.0000
1983-12-13 01:30:00 UTC,2445681.562500,28.7317,-95.2428,0036,8.60,22.41,24.0000,21.0000
1983-12-13 02:00:00 UTC,2445681.583333,28.7317,-95.2428,0036,8.99,22.25,24.0000,22.0000
1983-12-13 02:30:00 UTC,2445681.604167,28.7317,-95.2428,0036,10.17,22.84,25.0000,24.0000
1983-12-13 03:00:00 UTC,2445681.625000,28.7317,-95.2428,0036,10.90,21.38,24.0000,27.0000
1983-12-13 03:30:00 UTC,2445681.645833,28.7317,-95.2428,0036,11.15,20.12,23.0000,29.0000
1983-12-13 04:00:00 UTC,2445681.666667,28.7317,-95.2428,0036,11.85,19.71,23.0000,31.0000
1983-12-13 04:30:00 UTC,2445681.687500,28.7317,-95.2428,0036,12.62,18.02,22.0000,35.0000
1983-12-13 05:00:00 UTC,2445681.708333,28.7317,-95.2428,0036,13.22,16.32,21.0000,39.0000
1983-12-13 05:30:00 UTC,2445681.729167,28.7317,-95.2428,0036,13.89,14.39,20.0000,44.0000
1983-12-13 06:00:00 UTC,2445681.750000,28.7317,-95.2428,0036,14.34,12.47,19.0000,49.0000
1983-12-13 06:30:00 UTC,2445681.770833,28.7317,-95.2428,0036,14.77,11.96,19.0000,51.0000
1983-12-13 07:00:00 UTC,2445681.791667,28.7317,-95.2428,0036,13.99,11.33,18.0000,51.0000
1983-12-13 07:30:00 UTC,2445681.812500,28.7317,-95.2428,0036,14.18,11.08,18.0000,52.0000
1983-12-13 08:00:00 UTC,2445681.833333,28.7317,-95.2428,0036,14.74,10.32,18.0000,55.0000
1983-12-13 08:30:00 UTC,2445681.854167,28.7317,-95.2428,0036,15.10,9.80,18.0000,57.0000
1983-12-13 09:00:00 UTC,2445681.875000,28.7317,-95.2428,0036,15.10,9.80,18.0000,57.0000
1983-12-13 09:30:00 UTC,2445681.895833,28.7317,-95.2428,0036,16.29,9.79,19.0000,59.0000
1983-12-13 10:00:00 UTC,2445681.916667,28.7317,-95.2428,0036,17.82,9.08,20.0000,63.0000
1983-12-13 10:30:00 UTC,2445681.937500,28.7317,-95.2428,0036,18.54,7.49,20.0000,68.0000
1983-12-13 11:00:00 UTC,2445681.958333,28.7317,-95.2428,0036,17.30,4.96,18.0000,74.0000
1983-12-13 11:30:00 UTC,2445681.979167,28.7317,-95.2428,0036,15.76,2.78,16.0000,80.0000
1983-12-13 12:00:00 UTC,2445682.000000,28.7317,-95.2428,0036,13.97,0.98,14.0000,86.0000
1983-12-13 12:30:00 UTC,2445682.020833,28.7317,-95.2428,0036,12.95,-1.13,13.0000,95.0000
1983-12-13 13:00:00 UTC,2445682.041667,28.7317,-95.2428,0036,11.64,-2.90,12.0000,104.0000
1983-12-13 13:30:00 UTC,2445682.062500,28.7317,-95.2428,0036,10.13,-4.30,11.0000,113.0000
1983-12-13 14:00:00 UTC,2445682.083333,28.7317,-95.2428,0036,9.06,-4.23,10.0000,115.0000
1983-12-13 14:30:00 UTC,2445682.104167,28.7317,-95.2428,0036,10.34,-3.76,11.0000,110.0000
1983-12-13 15:00:00 UTC,2445682.125000,28.7317,-95.2428,0036,11.05,-4.69,12.0000,113.0000
1983-12-13 15:30:00 UTC,2445682.145833,28.7317,-95.2428,0036,11.61,-7.83,14.0000,124.0000
1983-12-13 16:00:00 UTC,2445682.166667,28.7317,-95.2428,0036,11.11,-11.51,16.0000,136.0000
1983-12-13 16:30:00 UTC,2445682.187500,28.7317,-95.2428,0036,10.32,-14.74,18.0000,145.0000
1983-12-13 17:00:00 UTC,2445682.208333,28.7317,-95.2428,0036,8.92,-16.78,19.0000,152.0000
1983-12-13 17:30:00 UTC,2445682.229167,28.7317,-95.2428,0036,7.32,-16.44,18.0000,156.0000
1983-12-13 18:00:00 UTC,2445682.250000,28.7317,-95.2428,0036,7.12,-17.62,19.0000,158.0000
1983-12-13 18:30:00 UTC,2445682.270833,28.7317,-95.2428,0036,7.18,-19.73,21.0000,160.0000
1983-12-13 19:00:00 UTC,2445682.291667,28.7317,-95.2428,0036,6.72,-22.00,23.0000,163.0000
1983-12-13 19:30:00 UTC,2445682.312500,28.7317,-95.2428,0036,5.56,-22.32,23.0000,166.0000
1983-12-13 20:00:00 UTC,2445682.333333,28.7317,-95.2428,0036,4.95,-21.44,22.0000,167.0000
1983-12-13 20:30:00 UTC,2445682.354167,28.7317,-95.2428,0036,6.62,-23.07,24.0000,164.0000
1983-12-13 21:00:00 UTC,2445682.375000,28.7317,-95.2428,0036,8.03,-24.73,26.0000,162.0000
1983-12-13 21:30:00 UTC,2445682.395833,28.7317,-95.2428,0036,7.42,-22.83,24.0000,162.0000
1983-12-13 22:00:00 UTC,2445682.416667,28.7317,-95.2428,0036,7.49,-18.54,20.0000,158.0000
1983-12-13 22:30:00 UTC,2445682.437500,28.7317,-95.2428,0036,8.24,-14.87,17.0000,151.0000
1983-12-13 23:00:00 UTC,2445682.458333,28.7317,-95.2428,0036,8.95,-13.26,16.0000,146.0000
1983-12-13 23:30:00 UTC,2445682.479167,28.7317,-95.2428,0036,8.39,-12.44,15.0000,146.0000
1983-12-14 00:00:00 UTC,2445682.500000,28.7317,-95.2428,0036,7.82,-10.38,13.0000,143.0000
1983-12-14 00:30:00 UTC,2445682.520833,28.7317,-95.2428,0036,8.78,-8.18,12.0000,133.0000
1983-12-14 01:00:00 UTC,2445682.541667,28.7317,-95.2428,0036,9.33,-7.55,12.0000,129.0000
1983-12-14 01:30:00 UTC,2445682.562500,28.7317,-95.2428,0036,10.06,-6.54,12.0000,123.0000
1983-12-14 02:00:00 UTC,2445682.583333,28.7317,-95.2428,0036,11.54,-3.31,12.0000,106.0000
1983-12-14 02:30:00 UTC,2445682.604167,28.7317,-95.2428,0036,12.87,1.81,13.0000,82.0000
1983-12-14 03:00:00 UTC,2445682.625000,28.7317,-95.2428,0036,13.81,5.86,15.0000,67.0000
1983-12-14 03:30:00 UTC,2445682.645833,28.7317,-95.2428,0036,15.89,8.45,18.0000,62.0000
1983-12-14 04:00:00 UTC,2445682.666667,28.7317,-95.2428,0036,16.58,11.18,20.0000,56.0000
1983-12-14 04:30:00 UTC,2445682.687500,28.7317,-95.2428,0036,17.10,13.85,22.0000,51.0000
1983-12-14 05:00:00 UTC,2445682.708333,28.7317,-95.2428,0036,18.39,15.43,24.0000,50.0000
1983-12-14 05:30:00 UTC,2445682.729167,28.7317,-95.2428,0036,19.92,16.71,26.0000,50.0000
1983-12-14 06:00:00 UTC,2445682.750000,28.7317,-95.2428,0036,21.76,17.62,28.0000,51.0000
1983-12-14 06:30:00 UTC,2445682.770833,28.7317,-95.2428,0036,22.85,17.85,29.0000,52.0000
1983-12-14 07:00:00 UTC,2445682.791667,28.7317,-95.2428,0036,22.54,18.25,29.0000,51.0000
1983-12-14 07:30:00 UTC,2445682.812500,28.7317,-95.2428,0036,22.65,16.46,28.0000,54.0000
1983-12-14 08:00:00 UTC,2445682.833333,28.7317,-95.2428,0036,23.38,13.50,27.0000,60.0000
1983-12-14 08:30:00 UTC,2445682.854167,28.7317,-95.2428,0036,22.47,10.96,25.0000,64.0000
1983-12-14 09:00:00 UTC,2445682.875000,28.7317,-95.2428,0036,21.38,10.90,24.0000,63.0000
1983-12-14 09:30:00 UTC,2445682.895833,28.7317,-95.2428,0036,20.49,10.44,23.0000,63.0000
1983-12-14 10:00:00 UTC,2445682.916667,28.7317,-95.2428,0036,21.01,9.35,23.0000,66.0000
1983-12-14 10:30:00 UTC,2445682.937500,28.7317,-95.2428,0036,22.09,9.38,24.0000,67.0000
1983-12-14 11:00:00 UTC,2445682.958333,28.7317,-95.2428,0036,21.38,10.90,24.0000,63.0000
1983-12-14 11:30:00 UTC,2445682.979167,28.7317,-95.2428,0036,21.43,12.88,25.0000,59.0000
1983-12-14 12:00:00 UTC,2445683.000000,28.7317,-95.2428,0036,20.97,13.62,25.0000,57.0000
1983-12-14 12:30:00 UTC,2445683.020833,28.7317,-95.2428,0036,21.55,14.54,26.0000,56.0000
1983-12-14 13:00:00 UTC,2445683.041667,28.7317,-95.2428,0036,20.76,15.65,26.0000,53.0000
1983-12-14 13:30:00 UTC,2445683.062500,28.7317,-95.2428,0036,21.28,16.62,27.0000,52.0000
1983-12-14 14:00:00 UTC,2445683.083333,28.7317,-95.2428,0036,20.98,16.99,27.0000,51.0000
1983-12-14 14:30:00 UTC,2445683.104167,28.7317,-95.2428,0036,20.38,17.71,27.0000,49.0000
1983-12-14 15:00:00 UTC,2445683.125000,28.7317,-95.2428,0036,21.21,19.78,29.0000,47.0000
1983-12-14 15:30:00 UTC,2445683.145833,28.7317,-95.2428,0036,21.58,20.84,30.0000,46.0000
1983-12-14 16:00:00 UTC,2445683.166667,28.7317,-95.2428,0036,21.92,21.92,31.0000,45.0000
1983-12-14 16:30:00 UTC,2445683.187500,28.7317,-95.2428,0036,20.84,21.58,30.0000,44.0000
1983-12-14 17:00:00 UTC,2445683.208333,28.7317,-95.2428,0036,20.84,21.58,30.0000,44.0000
1983-12-14 17:30:00 UTC,2445683.229167,28.7317,-95.2428,0036,20.15,20.86,29.0000,44.0000
1983-12-14 18:00:00 UTC,2445683.250000,28.7317,-95.2428,0036,19.42,18.76,27.0000,46.0000
1983-12-14 18:30:00 UTC,2445683.270833,28.7317,-95.2428,0036,19.62,17.06,26.0000,49.0000
1983-12-14 19:00:00 UTC,2445683.291667,28.7317,-95.2428,0036,19.70,15.39,25.0000,52.0000
1983-12-14 19:30:00 UTC,2445683.312500,28.7317,-95.2428,0036,19.66,13.77,24.0000,55.0000
1983-12-14 20:00:00 UTC,2445683.333333,28.7317,-95.2428,0036,18.45,11.98,22.0000,57.0000
1983-12-14 20:30:00 UTC,2445683.354167,28.7317,-95.2428,0036,18.19,10.50,21.0000,60.0000
1983-12-14 21:00:00 UTC,2445683.375000,28.7317,-95.2428,0036,17.98,8.77,20.0000,64.0000
1983-12-14 21:30:00 UTC,2445683.395833,28.7317,-95.2428,0036,16.31,7.61,18.0000,65.0000
1983-12-14 22:00:00 UTC,2445683.416667,28.7317,-95.2428,0036,15.53,6.91,17.0000,66.0000
1983-12-14 22:30:00 UTC,2445683.437500,28.7317,-95.2428,0036,15.65,6.64,17.0000,67.0000
1983-12-14 23:00:00 UTC,2445683.458333,28.7317,-95.2428,0036,15.53,6.91,17.0000,66.0000
1983-12-14 23:30:00 UTC,2445683.479167,28.7317,-95.2428,0036,15.15,7.72,17.0000,63.0000
1983-12-15 00:00:00 UTC,2445683.500000,28.7317,-95.2428,0036,15.43,9.27,18.0000,59.0000
1983-12-15 00:30:00 UTC,2445683.520833,28.7317,-95.2428,0036,14.74,10.32,18.0000,55.0000
1983-12-15 01:00:00 UTC,2445683.541667,28.7317,-95.2428,0036,14.97,11.70,19.0000,52.0000
1983-12-15 01:30:00 UTC,2445683.562500,28.7317,-95.2428,0036,15.32,12.86,20.0000,50.0000
1983-12-15 02:00:00 UTC,2445683.583333,28.7317,-95.2428,0036,17.10,13.85,22.0000,51.0000
1983-12-15 02:30:00 UTC,2445683.604167,28.7317,-95.2428,0036,17.87,14.47,23.0000,51.0000
1983-12-15 03:00:00 UTC,2445683.625000,28.7317,-95.2428,0036,18.65,15.10,24.0000,51.0000
1983-12-15 03:30:00 UTC,2445683.645833,28.7317,-95.2428,0036,19.43,15.73,25.0000,51.0000
1983-12-15 04:00:00 UTC,2445683.666667,28.7317,-95.2428,0036,20.49,16.01,26.0000,52.0000
1983-12-15 04:30:00 UTC,2445683.687500,28.7317,-95.2428,0036,21.03,15.28,26.0000,54.0000
1983-12-15 05:00:00 UTC,2445683.708333,28.7317,-95.2428,0036,21.81,14.16,26.0000,57.0000
1983-12-15 05:30:00 UTC,2445683.729167,28.7317,-95.2428,0036,21.20,13.25,25.0000,58.0000
1983-12-15 06:00:00 UTC,2445683.750000,28.7317,-95.2428,0036,20.78,12.00,24.0000,60.0000
1983-12-15 06:30:00 UTC,2445683.770833,28.7317,-95.2428,0036,20.31,10.80,23.0000,62.0000
1983-12-15 07:00:00 UTC,2445683.791667,28.7317,-95.2428,0036,19.03,8.87,21.0000,65.0000
1983-12-15 07:30:00 UTC,2445683.812500,28.7317,-95.2428,0036,19.61,7.53,21.0000,69.0000
1983-12-15 08:00:00 UTC,2445683.833333,28.7317,-95.2428,0036,18.91,6.51,20.0000,71.0000
1983-12-15 08:30:00 UTC,2445683.854167,28.7317,-95.2428,0036,18.07,5.87,19.0000,72.0000
1983-12-15 09:00:00 UTC,2445683.875000,28.7317,-95.2428,0036,17.39,4.66,18.0000,75.0000
1983-12-15 09:30:00 UTC,2445683.895833,28.7317,-95.2428,0036,16.50,4.11,17.0000,76.0000
1983-12-15 10:00:00 UTC,2445683.916667,28.7317,-95.2428,0036,17.47,4.35,18.0000,76.0000
1983-12-15 10:30:00 UTC,2445683.937500,28.7317,-95.2428,0036,17.54,4.05,18.0000,77.0000
1983-12-15 11:00:00 UTC,2445683.958333,28.7317,-95.2428,0036,17.73,3.13,18.0000,80.0000
1983-12-15 11:30:00 UTC,2445683.979167,28.7317,-95.2428,0036,18.77,2.97,19.0000,81.0000
1983-12-15 12:00:00 UTC,2445684.000000,28.7317,-95.2428,0036,18.71,3.30,19.0000,80.0000
1983-12-15 12:30:00 UTC,2445684.020833,28.7317,-95.2428,0036,19.23,5.51,20.0000,74.0000
1983-12-15 13:00:00 UTC,2445684.041667,28.7317,-95.2428,0036,19.03,8.87,21.0000,65.0000
1983-12-15 13:30:00 UTC,2445684.062500,28.7317,-95.2428,0036,20.57,12.36,24.0000,59.0000
1983-12-15 14:00:00 UTC,2445684.083333,28.7317,-95.2428,0036,21.30,14.91,26.0000,55.0000
1983-12-15 14:30:00 UTC,2445684.104167,28.7317,-95.2428,0036,22.36,16.85,28.0000,53.0000
1983-12-15 15:00:00 UTC,2445684.125000,28.7317,-95.2428,0036,22.85,17.85,29.0000,52.0000
1983-12-15 15:30:00 UTC,2445684.145833,28.7317,-95.2428,0036,23.31,18.88,30.0000,51.0000
1983-12-15 16:00:00 UTC,2445684.166667,28.7317,-95.2428,0036,23.96,18.05,30.0000,53.0000
1983-12-15 16:30:00 UTC,2445684.187500,28.7317,-95.2428,0036,24.87,16.78,30.0000,56.0000
1983-12-15 17:00:00 UTC,2445684.208333,28.7317,-95.2428,0036,24.59,15.37,29.0000,58.0000
1983-12-15 17:30:00 UTC,2445684.229167,28.7317,-95.2428,0036,24.00,14.42,28.0000,59.0000
1983-12-15 18:00:00 UTC,2445684.250000,28.7317,-95.2428,0036,23.61,13.09,27.0000,61.0000
1983-12-15 18:30:00 UTC,2445684.270833,28.7317,-95.2428,0036,23.84,12.68,27.0000,62.0000
1983-12-15 19:00:00 UTC,2445684.291667,28.7317,-95.2428,0036,23.17,11.80,26.0000,63.0000
1983-12-15 19:30:00 UTC,2445684.312500,28.7317,-95.2428,0036,22.47,10.96,25.0000,64.0000
1983-12-15 20:00:00 UTC,2445684.333333,28.7317,-95.2428,0036,21.93,9.76,24.0000,66.0000
1983-12-15 20:30:00 UTC,2445684.354167,28.7317,-95.2428,0036,22.09,9.38,24.0000,67.0000
1983-12-15 21:00:00 UTC,2445684.375000,28.7317,-95.2428,0036,22.09,9.38,24.0000,67.0000
1983-12-15 21:30:00 UTC,2445684.395833,28.7317,-95.2428,0036,20.49,10.44,23.0000,63.0000
1983-12-15 22:00:00 UTC,2445684.416667,28.7317,-95.2428,0036,19.05,11.00,22.0000,60.0000
1983-12-15 22:30:00 UTC,2445684.437500,28.7317,-95.2428,0036,18.45,11.98,22.0000,57.0000
1983-12-15 23:00:00 UTC,2445684.458333,28.7317,-95.2428,0036,16.99,12.34,21.0000,54.0000
1983-12-15 23:30:00 UTC,2445684.479167,28.7317,-95.2428,0036,16.32,13.22,21.0000,51.0000
1983-12-16 00:00:00 UTC,2445684.500000,28.7317,-95.2428,0036,16.09,13.50,21.0000,50.0000
1983-12-16 00:30:00 UTC,2445684.520833,28.7317,-95.2428,0036,15.85,13.78,21.0000,49.0000
1983-12-16 01:00:00 UTC,2445684.541667,28.7317,-95.2428,0036,15.36,14.32,21.0000,47.0000
1983-12-16 01:30:00 UTC,2445684.562500,28.7317,-95.2428,0036,14.85,14.85,21.0000,45.0000
1983-12-16 02:00:00 UTC,2445684.583333,28.7317,-95.2428,0036,13.89,14.39,20.0000,44.0000
1983-12-16 02:30:00 UTC,2445684.604167,28.7317,-95.2428,0036,13.89,14.39,20.0000,44.0000
1983-12-16 03:00:00 UTC,2445684.625000,28.7317,-95.2428,0036,12.96,13.90,19.0000,43.0000
1983-12-16 03:30:00 UTC,2445684.645833,28.7317,-95.2428,0036,12.21,14.55,19.0000,40.0000
1983-12-16 04:00:00 UTC,2445684.666667,28.7317,-95.2428,0036,11.57,13.79,18.0000,40.0000
1983-12-16 04:30:00 UTC,2445684.687500,28.7317,-95.2428,0036,12.28,13.16,18.0000,43.0000
1983-12-16 05:00:00 UTC,2445684.708333,28.7317,-95.2428,0036,11.81,12.23,17.0000,44.0000
1983-12-16 05:30:00 UTC,2445684.729167,28.7317,-95.2428,0036,10.91,11.70,16.0000,43.0000
1983-12-16 06:00:00 UTC,2445684.750000,28.7317,-95.2428,0036,9.55,10.24,14.0000,43.0000
1983-12-16 06:30:00 UTC,2445684.770833,28.7317,-95.2428,0036,9.03,9.35,13.0000,44.0000
1983-12-16 07:00:00 UTC,2445684.791667,28.7317,-95.2428,0036,7.91,7.64,11.0000,46.0000
1983-12-16 07:30:00 UTC,2445684.812500,28.7317,-95.2428,0036,7.43,6.69,10.0000,48.0000
1983-12-16 08:00:00 UTC,2445684.833333,28.7317,-95.2428,0036,6.39,4.81,8.0000,53.0000
1983-12-16 08:30:00 UTC,2445684.854167,28.7317,-95.2428,0036,6.00,3.61,7.0000,59.0000
1983-12-16 09:00:00 UTC,2445684.875000,28.7317,-95.2428,0036,4.05,2.94,5.0000,54.0000
1983-12-16 09:30:00 UTC,2445684.895833,28.7317,-95.2428,0036,2.62,3.02,4.0000,41.0000
1983-12-16 10:00:00 UTC,2445684.916667,28.7317,-95.2428,0036,1.70,1.06,2.0000,58.0000
1983-12-16 10:30:00 UTC,2445684.937500,28.7317,-95.2428,0036,0.28,-0.96,1.0000,164.0000
1983-12-16 11:00:00 UTC,2445684.958333,28.7317,-95.2428,0036,-2.33,-1.89,3.0000,231.0000
1983-12-16 11:30:00 UTC,2445684.979167,28.7317,-95.2428,0036,-3.73,-1.43,4.0000,249.0000
1983-12-16 12:00:00 UTC,2445685.000000,28.7317,-95.2428,0036,-4.85,-1.21,5.0000,256.0000
1983-12-16 12:30:00 UTC,2445685.020833,28.7317,-95.2428,0036,-5.91,-1.04,6.0000,260.0000
1983-12-16 13:00:00 UTC,2445685.041667,28.7317,-95.2428,0036,-5.96,-0.73,6.0000,263.0000
1983-12-16 13:30:00 UTC,2445685.062500,28.7317,-95.2428,0036,-5.96,0.73,6.0000,277.0000
1983-12-16 14:00:00 UTC,2445685.083333,28.7317,-95.2428,0036,-2.27,4.46,5.0000,333.0000
1983-12-16 14:30:00 UTC,2445685.104167,28.7317,-95.2428,0036,1.25,7.90,8.0000,9.0000
1983-12-16 15:00:00 UTC,2445685.125000,28.7317,-95.2428,0036,3.94,10.27,11.0000,21.0000
1983-12-16 15:30:00 UTC,2445685.145833,28.7317,-95.2428,0036,7.42,11.87,14.0000,32.0000
1983-12-16 16:00:00 UTC,2445685.166667,28.7317,-95.2428,0036,9.33,7.55,12.0000,51.0000
1983-12-16 16:30:00 UTC,2445685.187500,28.7317,-95.2428,0036,7.79,-1.80,8.0000,103.0000
1983-12-16 17:00:00 UTC,2445685.208333,28.7317,-95.2428,0036,1.87,-8.80,9.0000,168.0000
1983-12-16 17:30:00 UTC,2445685.229167,28.7317,-95.2428,0036,-4.87,-12.05,13.0000,202.0000
1983-12-16 18:00:00 UTC,2445685.250000,28.7317,-95.2428,0036,-10.62,-15.75,19.0000,214.0000
1983-12-16 18:30:00 UTC,2445685.270833,28.7317,-95.2428,0036,-15.09,-17.36,23.0000,221.0000
1983-12-16 19:00:00 UTC,2445685.291667,28.7317,-95.2428,0036,-18.76,-19.42,27.0000,224.0000
1983-12-16 19:30:00 UTC,2445685.312500,28.7317,-95.2428,0036,-23.02,-22.23,32.0000,226.0000
1983-12-16 20:00:00 UTC,2445685.333333,28.7317,-95.2428,0036,-26.41,-22.96,35.0000,229.0000
1983-12-16 20:30:00 UTC,2445685.354167,28.7317,-95.2428,0036,-26.75,-24.09,36.0000,228.0000
1983-12-16 21:00:00 UTC,2445685.375000,28.7317,-95.2428,0036,-26.75,-24.09,36.0000,228.0000
1983-12-16 21:30:00 UTC,2445685.395833,28.7317,-95.2428,0036,-27.50,-24.76,37.0000,228.0000
1983-12-16 22:00:00 UTC,2445685.416667,28.7317,-95.2428,0036,-27.33,-26.40,38.0000,226.0000
1983-12-16 22:30:00 UTC,2445685.437500,28.7317,-95.2428,0036,-28.98,-26.10,39.0000,228.0000
1983-12-16 23:00:00 UTC,2445685.458333,28.7317,-95.2428,0036,-30.73,-24.01,39.0000,232.0000
1983-12-16 23:30:00 UTC,2445685.479167,28.7317,-95.2428,0036,-31.95,-22.37,39.0000,235.0000
1983-12-17 00:00:00 UTC,2445685.500000,28.7317,-95.2428,0036,-31.95,-22.37,39.0000,235.0000
1983-12-17 00:30:00 UTC,2445685.520833,28.7317,-95.2428,0036,-31.55,-22.92,39.0000,234.0000
1983-12-17 01:00:00 UTC,2445685.541667,28.7317,-95.2428,0036,-31.55,-22.92,39.0000,234.0000
1983-12-17 01:30:00 UTC,2445685.562500,28.7317,-95.2428,0036,-31.95,-22.37,39.0000,235.0000
1983-12-17 02:00:00 UTC,2445685.583333,28.7317,-95.2428,0036,-32.33,-21.81,39.0000,236.0000
1983-12-17 02:30:00 UTC,2445685.604167,28.7317,-95.2428,0036,-32.33,-21.81,39.0000,236.0000
1983-12-17 03:00:00 UTC,2445685.625000,28.7317,-95.2428,0036,-31.13,-21.80,38.0000,235.0000
1983-12-17 03:30:00 UTC,2445685.645833,28.7317,-95.2428,0036,-30.31,-21.22,37.0000,235.0000
1983-12-17 04:00:00 UTC,2445685.666667,28.7317,-95.2428,0036,-29.93,-21.75,37.0000,234.0000
1983-12-17 04:30:00 UTC,2445685.687500,28.7317,-95.2428,0036,-30.73,-24.01,39.0000,232.0000
1983-12-17 05:00:00 UTC,2445685.708333,28.7317,-95.2428,0036,-31.52,-24.63,40.0000,232.0000
1983-12-17 05:30:00 UTC,2445685.729167,28.7317,-95.2428,0036,-33.54,-25.28,42.0000,233.0000
1983-12-17 06:00:00 UTC,2445685.750000,28.7317,-95.2428,0036,-36.41,-26.45,45.0000,234.0000
1983-12-17 06:30:00 UTC,2445685.770833,28.7317,-95.2428,0036,-36.74,-27.68,46.0000,233.0000
1983-12-17 07:00:00 UTC,2445685.791667,28.7317,-95.2428,0036,-37.82,-29.55,48.0000,232.0000
1983-12-17 07:30:00 UTC,2445685.812500,28.7317,-95.2428,0036,-36.77,-30.85,48.0000,230.0000
1983-12-17 08:00:00 UTC,2445685.833333,28.7317,-95.2428,0036,-36.98,-32.15,49.0000,229.0000
1983-12-17 08:30:00 UTC,2445685.854167,28.7317,-95.2428,0036,-35.67,-32.12,48.0000,228.0000
1983-12-17 09:00:00 UTC,2445685.875000,28.7317,-95.2428,0036,-34.93,-31.45,47.0000,228.0000
1983-12-17 09:30:00 UTC,2445685.895833,28.7317,-95.2428,0036,-33.64,-31.37,46.0000,227.0000
1983-12-17 10:00:00 UTC,2445685.916667,28.7317,-95.2428,0036,-32.18,-30.01,44.0000,227.0000
1983-12-17 10:30:00 UTC,2445685.937500,28.7317,-95.2428,0036,-32.70,-29.44,44.0000,228.0000
1983-12-17 11:00:00 UTC,2445685.958333,28.7317,-95.2428,0036,-32.94,-27.64,43.0000,230.0000
1983-12-17 11:30:00 UTC,2445685.979167,28.7317,-95.2428,0036,-31.09,-25.17,40.0000,231.0000
1983-12-17 12:00:00 UTC,2445686.000000,28.7317,-95.2428,0036,-29.16,-22.78,37.0000,232.0000
1983-12-17 12:30:00 UTC,2445686.020833,28.7317,-95.2428,0036,-27.15,-20.46,34.0000,233.0000
1983-12-17 13:00:00 UTC,2445686.041667,28.7317,-95.2428,0036,-25.56,-19.26,32.0000,233.0000
1983-12-17 13:30:00 UTC,2445686.062500,28.7317,-95.2428,0036,-24.87,-20.14,32.0000,231.0000
1983-12-17 14:00:00 UTC,2445686.083333,28.7317,-95.2428,0036,-23.31,-18.88,30.0000,231.0000
1983-12-17 14:30:00 UTC,2445686.104167,28.7317,-95.2428,0036,-21.76,-17.62,28.0000,231.0000
1983-12-17 15:00:00 UTC,2445686.125000,28.7317,-95.2428,0036,-20.98,-16.99,27.0000,231.0000
1983-12-17 15:30:00 UTC,2445686.145833,28.7317,-95.2428,0036,-20.21,-16.36,26.0000,231.0000
1983-12-17 16:00:00 UTC,2445686.166667,28.7317,-95.2428,0036,-19.97,-15.05,25.0000,233.0000
1983-12-17 16:30:00 UTC,2445686.187500,28.7317,-95.2428,0036,-18.84,-13.19,23.0000,235.0000
1983-12-17 17:00:00 UTC,2445686.208333,28.7317,-95.2428,0036,-19.07,-12.86,23.0000,236.0000
1983-12-17 17:30:00 UTC,2445686.229167,28.7317,-95.2428,0036,-18.02,-12.62,22.0000,235.0000
1983-12-17 18:00:00 UTC,2445686.250000,28.7317,-95.2428,0036,-17.80,-12.93,22.0000,234.0000
1983-12-17 18:30:00 UTC,2445686.270833,28.7317,-95.2428,0036,-17.57,-13.24,22.0000,233.0000
1983-12-17 19:00:00 UTC,2445686.291667,28.7317,-95.2428,0036,-17.80,-12.93,22.0000,234.0000
1983-12-17 19:30:00 UTC,2445686.312500,28.7317,-95.2428,0036,-17.80,-12.93,22.0000,234.0000
1983-12-17 20:00:00 UTC,2445686.333333,28.7317,-95.2428,0036,-17.57,-13.24,22.0000,233.0000
1983-12-17 20:30:00 UTC,2445686.354167,28.7317,-95.2428,0036,-16.32,-13.22,21.0000,231.0000
1983-12-17 21:00:00 UTC,2445686.375000,28.7317,-95.2428,0036,-15.85,-13.78,21.0000,229.0000
1983-12-17 21:30:00 UTC,2445686.395833,28.7317,-95.2428,0036,-15.83,-15.28,22.0000,226.0000
1983-12-17 22:00:00 UTC,2445686.416667,28.7317,-95.2428,0036,-16.67,-17.26,24.0000,224.0000
1983-12-17 22:30:00 UTC,2445686.437500,28.7317,-95.2428,0036,-16.67,-17.26,24.0000,224.0000
1983-12-17 23:00:00 UTC,2445686.458333,28.7317,-95.2428,0036,-16.67,-17.26,24.0000,224.0000
1983-12-17 23:30:00 UTC,2445686.479167,28.7317,-95.2428,0036,-16.54,-15.98,23.0000,226.0000
1983-12-18 00:00:00 UTC,2445686.500000,28.7317,-95.2428,0036,-18.11,-15.75,24.0000,229.0000
1983-12-18 00:30:00 UTC,2445686.520833,28.7317,-95.2428,0036,-21.76,-17.62,28.0000,231.0000
1983-12-18 01:00:00 UTC,2445686.541667,28.7317,-95.2428,0036,-23.31,-18.88,30.0000,231.0000
1983-12-18 01:30:00 UTC,2445686.562500,28.7317,-95.2428,0036,-22.98,-19.28,30.0000,230.0000
1983-12-18 02:00:00 UTC,2445686.583333,28.7317,-95.2428,0036,-21.89,-19.03,29.0000,229.0000
1983-12-18 02:30:00 UTC,2445686.604167,28.7317,-95.2428,0036,-20.81,-18.74,28.0000,228.0000
1983-12-18 03:00:00 UTC,2445686.625000,28.7317,-95.2428,0036,-20.38,-17.71,27.0000,229.0000
1983-12-18 03:30:00 UTC,2445686.645833,28.7317,-95.2428,0036,-19.32,-17.40,26.0000,228.0000
1983-12-18 04:00:00 UTC,2445686.666667,28.7317,-95.2428,0036,-19.02,-17.73,26.0000,227.0000
1983-12-18 04:30:00 UTC,2445686.687500,28.7317,-95.2428,0036,-19.02,-17.73,26.0000,227.0000
1983-12-18 05:00:00 UTC,2445686.708333,28.7317,-95.2428,0036,-20.38,-17.71,27.0000,229.0000
1983-12-18 05:30:00 UTC,2445686.729167,28.7317,-95.2428,0036,-20.38,-17.71,27.0000,229.0000
1983-12-18 06:00:00 UTC,2445686.750000,28.7317,-95.2428,0036,-19.75,-18.41,27.0000,227.0000